Itumeleng Dolly

Olheiro - Ajax Cape Town
3 Abr 2027
Sábado
Processo

Personalidade

Adaptabilidade (5) Ambição (20) Controvérsia (6) Lealdade (2) Pressão (13) Profissionalismo (13) Espírito Esportivo (11) Temperamento (15)

Perfil

Estilo de Treinamento Democrático
Licença Continental Pro
Determinação 9
Gestão de Pessoas 6
Motivação 8
Disciplina 5
Satisfação no Trabalho
50%
Fadiga
0%
Função Olheiro
Salário 69.8K p/s
Contrato 14.03.2029

Desempenho

Comportamento Normal
Eficácia do Treinamento
15%
Desenvolvimento do Jogador
35%
Prevenção de Lesões
40%
Implementação Tática
45%

Eventos Recentes

Avaliou um jogador 7d atrás
Participou de uma reunião de recrutamento 7d atrás
Avaliou um jogador 7d atrás
Avaliou um jogador 7d atrás
Participou de uma reunião de recrutamento 14d atrás
Avaliou um jogador 14d atrás
Avaliou um jogador 14d atrás
Avaliou um jogador 21d atrás

Monitorando agora

109
Jogador Clube Status Habilidade Confiança Observado Última observação Último voto
Josh Woods Accrington Stanley Ativo 101 / 82 40% 3 02.04.2027 -
Kyreece Lisbie Colchester United Ativo 96 / 131 40% 4 02.04.2027 -
Thulani Mabaso Platinum Stars Ativo 106 / 101 40% 2 26.03.2027 -
Jamie Jellis Walsall Ativo 93 / 85 40% 1 26.03.2027 -
Bradley Mothiba SuperSport United Ativo 113 / 93 40% 1 23.03.2027 -
Lewis Cass Harrogate Town Ativo 69 / 93 40% 1 23.03.2027 -
Solly Khunyedi Bloemfontein Celtic Ativo 88 / 88 40% 2 22.03.2027 -
Ryan Stirk Chesterfield Ativo 102 / 86 40% 2 22.03.2027 -
Clinton Mola Bristol Rovers Ativo 103 / 92 40% 2 21.03.2027 -
Daniel Kyerewaa Reading Ativo 126 / 120 40% 3 21.03.2027 -
Alistair Smith AFC Wimbledon Ativo 82 / 90 40% 2 18.03.2027 -
Freddie Draper Lincoln City Ativo 96 / 111 40% 1 18.03.2027 -
Vincent Harper Walsall Ativo 116 / 74 40% 2 13.03.2027 -
Luphumlo Sifumba Maritzburg United Ativo 82 / 87 40% 1 13.03.2027 -
Lewis Richards Crawley Town Ativo 110 / 112 40% 2 12.03.2027 -
Giancarlo Mosta Ativo 78 / 102 40% 1 12.03.2027 -
Jay Matete Milton Keynes Dons Ativo 102 / 88 40% 2 11.03.2027 -
Conor Grant Notts County Ativo 90 / 88 40% 1 10.03.2027 -
Monty Batlhabane Polokwane City Ativo 108 / 83 40% 2 07.03.2027 -
Jonathan Sulemana BA All Stars Ativo 113 / 121 40% 2 05.03.2027 -
Jay Williams Crawley Town Ativo 89 / 106 40% 1 05.03.2027 -
Géza Dávid Turi Grimsby Town Ativo 81 / 117 40% 1 04.03.2027 -
Louis Appéré Cambridge United Ativo 89 / 83 40% 1 02.03.2027 -
Stephen Duke-McKenna KAMAZ Ativo 111 / 76 40% 2 24.02.2027 -
Fraser Murray Wigan Athletic Ativo 94 / 113 40% 1 24.02.2027 -
Charlie Whitaker Tranmere Rovers Ativo 77 / 91 40% 2 20.02.2027 -
Adil Taoui Lokomotiv Sofia Ativo 120 / 114 40% 1 17.02.2027 -
Johnly Yfeko Exeter City Ativo 106 / 114 40% 1 17.02.2027 -
Juan David Obando Saturn Ativo 73 / 78 40% 1 11.02.2027 -
Brian Gambarte Sliema Wanderers Ativo 105 / 88 40% 3 06.02.2027 -
Sinoxolo Kwayiba Chippa United Ativo 103 / 101 40% 1 06.02.2027 -
Marko Musulin Tarxien Rainbows Ativo 102 / 104 40% 1 04.02.2027 -
Azola Matrose Chippa United Ativo 86 / 99 40% 1 01.02.2027 -
Jordan Williams Portsmouth Ativo 135 / 132 40% 1 01.02.2027 -
Vincent Harper Walsall Perdido 101 / 89 40% 1 25.01.2027 -
Kamil Conteh Bristol Rovers Ativo 90 / 102 40% 1 18.01.2027 -
Ibrahim Cissoko Zwolle Ativo 99 / 142 40% 1 18.01.2027 -
Wesley Tarxien Rainbows Perdido 107 / 86 40% 1 09.01.2027 -
Luís Mota Zabbar St. Patrick Ativo 84 / 96 40% 5 27.12.2026 -
Johnson Amuzu Berekum Chelsea Ativo 80 / 101 40% 1 27.12.2026 -
Dilan Ortíz Ufa Ativo 109 / 124 40% 1 25.12.2026 -
Luther Zwane Platinum Stars Ativo 116 / 119 40% 2 23.12.2026 -
Thabiso Msane AS Bakaridjan Ativo 65 / 87 40% 1 23.12.2026 -
Luke Baartman Chippa United Ativo 103 / 113 40% 5 22.12.2026 -
Abdulmajid Aminu Barau Ativo 73 / 80 40% 2 18.12.2026 -
Josephat Lopaga Kakamega Homeboyz Ativo 82 / 97 40% 3 18.12.2026 -
Egor Bogomolskiy Zira Ativo 101 / 122 40% 1 17.12.2026 -
Martin Sekulić Ural Ativo 117 / 89 40% 1 16.12.2026 -
José Bica Leixões Ativo 84 / 125 40% 1 16.12.2026 -
Samuel Ayanrinde Kenya Police Ativo 85 / 91 40% 5 15.12.2026 -
Lewis Freestone Stevenage Ativo 99 / 110 40% 1 10.12.2026 -
Daniil Agureev Amkar Ativo 76 / 102 40% 1 09.12.2026 -
Mateo Fernández Angusht Ativo 69 / 86 40% 3 06.12.2026 -
Slobodan Tedić Akron Ativo 94 / 128 40% 1 06.12.2026 -
Miro Dinamo Makhachkala Ativo 93 / 102 40% 1 03.12.2026 -
Gilson Benchimol Akron Ativo 87 / 134 40% 2 02.12.2026 -
Celso Sidney Cherno More Ativo 111 / 102 40% 2 02.12.2026 -
Jonathan Okoronkwo Torpedo Moscow Ativo 100 / 102 40% 1 01.12.2026 -
Piotr Samiec-Talar Slask Ativo 130 / 95 40% 1 01.12.2026 -
Kamarai Swyer Northampton Town Ativo 74 / 97 40% 3 29.11.2026 -
Jack Vale Alcione Milano Ativo 95 / 70 40% 1 29.11.2026 -
Denis Rubanov Dinamo Stavropol Ativo 70 / 75 40% 1 22.11.2026 -
Robbie Robinson Merani Ativo 111 / 72 40% 1 22.11.2026 -
Wandile Duba Bidvest Wits Ativo 89 / 107 40% 4 19.11.2026 -
Kane Drummond Oldham Athletic Ativo 88 / 78 40% 1 19.11.2026 -
Alpha Onyango Gor Mahia Ativo 94 / 86 40% 1 18.11.2026 -
Jerome Karelse Golden Arrows Ativo 111 / 114 40% 2 15.11.2026 -
Antony Medrano Dobrudzha Ativo 106 / 95 40% 1 15.11.2026 -
Elly Saenyi Muranga Seal Ativo 80 / 80 40% 1 14.11.2026 -
Harry Ashfield Wrexham Ativo 74 / 79 40% 1 11.11.2026 -
Alfred Emoni Bandari Ativo 84 / 68 40% 3 10.11.2026 -
Kirill Bogdanets Volna Ativo 93 / 93 40% 1 09.11.2026 -
Hlompho Modiba Black Aces Ativo 104 / 79 40% 1 09.11.2026 -
Nikita Simdyankin KDV Tomsk Ativo 63 / 93 40% 2 08.11.2026 -
Suraju Lawal Abia Warriors Ativo 103 / 78 40% 2 07.11.2026 -
Ilja Grischenko Kaluga Ativo 90 / 108 40% 1 07.11.2026 -
Musa Masika Mathare United Ativo 89 / 95 40% 3 05.11.2026 -
Lungelo Nguse AS Bakaridjan Ativo 93 / 85 40% 1 05.11.2026 -
Jorge Padilla Cherno More Ativo 109 / 114 40% 1 03.11.2026 -
David Benjamin Rivers United Ativo 92 / 84 40% 2 01.11.2026 -
Eren Aydın Zira Ativo 108 / 95 40% 1 01.11.2026 -
Hernán Luna NK Domzale Ativo 100 / 78 40% 1 29.10.2026 -
David Sakwa Bandari Ativo 66 / 90 40% 1 27.10.2026 -
Gonzalo Córdoba Lokomotivi Ativo 127 / 93 40% 1 23.10.2026 -
Peter Thiong'o Kakamega Homeboyz Ativo 78 / 70 40% 1 21.10.2026 -
Ekain Orobengoa Real Sociedad Ativo 106 / 99 40% 1 21.10.2026 -
Samuel Ssenyonjo AFC Leopards Ativo 94 / 71 40% 2 17.10.2026 -
Hassan Beja AFC Leopards Ativo 70 / 73 40% 3 12.10.2026 -
Godwin Akpo Barau Ativo 86 / 86 40% 1 12.10.2026 -
Benjamin Hvidt Esbjerg Ativo 93 / 124 40% 1 08.10.2026 -
Siyanda Msani University of Pretoria Ativo 91 / 113 40% 1 08.10.2026 -
Tomiwa Awojob Ikorodu City Ativo 83 / 82 40% 1 04.10.2026 -
Nikolay Maximov Krylya Sovetov Ativo 49 / 65 40% 1 04.10.2026 -
Gamid Agalarov Dinamo Makhachkala Ativo 120 / 103 40% 1 03.10.2026 -
Mauro Schönfeld Stjarnan Ativo 119 / 115 40% 1 01.10.2026 -
Kristófer Ingi Kristinsson Breidablik Ativo 98 / 119 40% 1 01.10.2026 -
Nyamawi Beja Bandari Ativo 95 / 91 40% 2 30.09.2026 -
Jonathan Jacob Enyimba Ativo 77 / 89 40% 1 30.09.2026 -
Tiago Pucciarelli FK Senica Ativo 108 / 92 40% 1 24.09.2026 -
Fortune Omoto KCB Ativo 70 / 74 40% 1 23.09.2026 -
Tyshick Mosengo Kenya Police Ativo 87 / 79 40% 1 20.09.2026 -
Imamu Bala Wikki Tourists Ativo 72 / 61 40% 1 11.09.2026 -
Erick Otieno Shabana Ativo 83 / 66 40% 1 10.09.2026 -
José Martínes CSKA 1948 Ativo 95 / 105 40% 1 10.09.2026 -
David Savarino Llaneros Ativo 80 / 84 40% 1 09.09.2026 -
Bashiru Usman Niger Tornadoes Ativo 84 / 82 40% 1 07.09.2026 -
Mandla Erasmus SuperSport United Ativo 75 / 89 41% 1 24.08.2026 -
Sebastián Ferreira Olimpia Ativo 126 / 104 40% 1 02.08.2026 -
Enzo Avaro Mitre Ativo 90 / 96 40% 1 02.08.2026 -